Location: Newark
(7.0858°N, 171.3717°E)
Time: 01:36:12
(UTC+00:00)

Vanguard 3 - Pass Details

Date: 28 November 2020
Orbit: 508 x 3262 km, 33.3° (Epoch: 19 January)

Event Time Altitude Azimuth Distance (km) Brightness Sun altitude
Exits shadow 16:24:51 52° 304° (NW) 2,236 8.8 -30.0°
Maximum altitude 16:28:37 89° 215° (SW) 2,128 9.0 -29.1°
Drops below altitude 10° 16:45:55 10° 126° (SE) 5,889 12.5 -25.1°
Sets 16:51:02 0° 126° (SE) 7,106 13.2 -23.9°
